カタログに戻る

YAOGAN-43 O1B

運用中軍事VLEO
NORAD 60459·PAYLOAD·🇨🇳 China

打ち上げ Aug 16, 2024 から Xichang Satellite Launch Center

Loading…

次のパス (今後24時間)

TLE

最新Source: Space-Track

元期: Sep 14, 2026, 12:42 UTC

1 60459U 24148B   26257.52928755  .00010202  00000-0  26797-3 0  9997
2 60459  34.9922 280.1835 0007690 304.1574  55.8416 15.37777193116184

AllMySatでYAOGAN-43 O1Bをリアルタイム追跡

Download on the App Store